Tracking 19832 objects as of 24-Aug-2019
HD Live streaming from Space Station
objects crossing your sky now

COSMOS 2251 DEB

Track COSMOS 2251 DEB now!
10-day predictions


NORAD ID: 34674
Int'l Code: 1993-036XU
Perigee: 617.6 km
Apogee: 777.3 km
Inclination: 74.0 °
Period: 98.6 minutes
Semi major axis: 7068 km
RCS: 0.0033 m2 (small)
Launch date: June 16, 1993
Source: Commonwealth of Independent States (former USSR) (CIS)
Launch site: PLESETSK MISSILE AND SPACE COMPLEX (PKMTR)

Note: This is SATELLITE DEBRIS
aabbcc
Your satellite tracking list
Your tracking list is empty




NASA's NSSDC Master Catalog

Two Line Element Set (TLE):
1 34674U 93036XU  19236.20867713  .00000370  00000-0  75302-4 0  9991
2 34674  73.9821 315.3112 0113010 102.9033 258.4784 14.60884540555043
Source of the keplerian elements: AFSPC